Regional Weather Roundup
Issued by NWS Boston, MA

Home | Current Version | Previous Version | Text Only | Print | Product List | Glossary On
Versions: 1 2 3 4 5 6 7 8 9 10 11 12 13 14 15 16 17 18 19 20 21 22 23 24 25 26 27
000
ASUS41 KBOX 211210
RWRBOX

REGIONAL WEATHER ROUNDUP
NATIONAL WEATHER SERVICE TAUNTON MA
800 AM EDT SAT OCT 21 2017

NOTE:  "FAIR" INDICATES FEW OR NO CLOUDS BELOW 12,000 FEET WITH NO
SIGNIFICANT WEATHER AND/OR OBSTRUCTIONS TO VISIBILITY.

MAZALL-211300-
EASTERN MASSACHUSETTS

CITY           SKY/WX    TMP DP  RH WIND       PRES   REMARKS
BOSTON         PTCLDY    54  41  61 S5        30.26R
6HR MIN TEMP:  51; 6HR MAX TEMP:  58;

BEVERLY        CLEAR     46  39  76 CALM      30.25R
LAWRENCE       CLEAR     49  40  71 S3        30.27R
BEDFORD        PTCLDY    41  37  86 CALM      30.26R
BLUE HILL        N/A     54  34  46 W9        30.26R
NORWOOD        CLEAR     41  39  93 CALM      30.27R
MARSHFIELD     CLEAR     45  41  87 CALM      30.27R
PLYMOUTH       CLEAR     44  40  85 CALM      30.28R
TAUNTON        CLEAR     41  39  93 CALM      30.28R
NEW BEDFORD    CLEAR     42  40  92 CALM      30.27R
$$

MAZALL-211300-
CAPE COD AND THE ISLANDS

CITY           SKY/WX    TMP DP  RH WIND       PRES   REMARKS
FALMOUTH       CLEAR     45  41  87 CALM      30.29R
HYANNIS        CLEAR     48  45  89 CALM      30.27R
CHATHAM        CLEAR     51  50  96 CALM      30.28R
PROVINCETOWN   CLEAR     48  46  93 SW3       30.27R
NANTUCKET      CLEAR     51  50  96 CALM      30.28R
MARTHAS VNYRD  CLEAR     43  41  93 CALM      30.28R
$$

MAZALL-211300-
CENTRAL AND WESTERN MASSACHUSETTS

CITY           SKY/WX    TMP DP  RH WIND       PRES   REMARKS
WORCESTER      CLEAR     55  31  39 W13       30.28R
6HR MIN TEMP:  53; 6HR MAX TEMP:  55;

FITCHBURG      CLEAR     53  40  61 VRB7      30.27R
ORANGE         CLEAR     36  36 100 CALM      30.30R
SPRINGFIELD    CLEAR     37  36  95 CALM      30.29R
WESTFIELD      CLEAR     40  39  97 CALM      30.30R
NORTH ADAMS    PTCLDY    35  34  96 CALM      30.33R
PITTSFIELD     CLEAR     39  36  89 CALM      30.31R
$$

RIZALL-211300-
RHODE ISLAND

CITY           SKY/WX    TMP DP  RH WIND       PRES   REMARKS
PROVIDENCE     PTCLDY    47  44  90 CALM      30.29R
6HR MIN TEMP:  45; 6HR MAX TEMP:  54;

NEWPORT        CLEAR     49  46  90 CALM      30.28R
BLOCK ISLAND   CLEAR     56  44  64 CALM      30.30R
SMITHFIELD     CLEAR     48  38  68 CALM      30.28R
WESTERLY       CLEAR     47  42  83 CALM      30.30R
$$

CTZALL-211300-
CONNECTICUT

CITY           SKY/WX    TMP DP  RH WIND       PRES   REMARKS
BRADLEY INTL   PTCLDY    42  39  89 CALM      30.30R
6HR MIN TEMP:  40; 6HR MAX TEMP:  47;

HARTFORD       CLEAR     44  44 100 CALM      30.31R
BRIDGEPORT     CLEAR     50  43  77 CALM      30.30R
DANBURY        CLEAR     40  38  93 CALM      30.33R
GROTON         CLEAR     48  42  80 CALM      30.29R
NEW HAVEN      PTCLDY    44  41  89 CALM      30.31R
CHESTER        FAIR      55  36  47 NW6       30.30R
MERIDEN        CLEAR     42  41  96 CALM      30.31R
WILLIMANTIC    CLEAR     40  37  89 CALM      30.31R
OXFORD         CLEAR     46  37  71 CALM      30.32R
$$

MEZ002-015-021-024-NHZ003-005-008-011-012-014-VTZ005-008-211300-
NORTHERN NEW ENGLAND

CITY           SKY/WX    TMP DP  RH WIND       PRES   REMARKS
PORTLAND ME    PTCLDY    45  39  79 SE5       30.23R
6HR MIN TEMP:  42; 6HR MAX TEMP:  49;

BANGOR ME      MOCLDY    43  37  79 CALM      30.23R
CONCORD NH     CLEAR     40  36  86 CALM      30.26R
MANCHESTER NH  PTCLDY    43  39  86 CALM      30.24R
NASHUA NH      CLEAR     41  39  93 NW3       30.27R
PORTSMOUTH NH  PTCLDY    51  42  72 CALM      30.23R
JAFFREY NH     CLEAR     43  39  86 S6        30.28R
KEENE NH       CLEAR     34  33  96 CALM      30.31R
BURLINGTON VT  PTCLDY    46  40  79 CALM      30.24R
MT. WASHINGTON PTCLDY    39  30  70 W53         N/A  WCI  24
$$

NYZ052-076-211300-
EASTERN NEW YORK

CITY           SKY/WX    TMP DP  RH WIND       PRES   REMARKS
ALBANY         PTCLDY    42  36  79 CALM      30.32R
6HR MIN TEMP:  40; 6HR MAX TEMP:  48;

NEW YORK CITY  PTCLDY    61  45  55 CALM      30.30R
6HR MIN TEMP:  58; 6HR MAX TEMP:  64;

$$

ANZALL-211300-
MARINE OBSERVATIONS

STATION/POSITION TIME  TEMP    WIND        PRES    VSBY  WAVE
                       AIR SEA DIR/SP/G                  HT/PER
                 (UTC) (F)     (DEG/KT/KT) (MB)    (MI)  (FT/S)
BOSTON BUOY      1050   58 59  240/  4/  6 1023.3          1
BUZZARDS BAY     1100   58      30/  3/  3 1025.3R
NANTUCKET SOUND  1150   61 61  330/  4/  4 1025.3R         1
MASS BAY-STELLWA 1104   58 59  220/  4/  6 1023.1R         1/ 8
ISLE OF SHOALS   1100   55     270/  7/  7 1023.1R
S OF BLOCK IS    NOT AVBL
$$

......................KEY.........................
  SKY/WX - SKY CONDITION/PRESENT WEATHER
  TMP    - TEMPERATURE IN FAHRENHEIT
  DWPT   - DEWPOINT IN FAHRENHEIT
  RH     - RELATIVE HUMIDITY IN PERCENT
  WIND   - DIRECTION AND SPEED IN MPH
  PRES   - MEAN SEA LEVEL PRESSURE IN INCHES OF HG
  WCI    - WIND CHILL INDEX
  VSB    - VISIBILITY IN MILES
  HX     - HEAT INDEX
  TC     - TEMPERATURE IN CELSIUS
  VRB    - VARIABLE WIND DIRECTION
  N/A    - NOT AVAILABLE




USA.gov is the U.S. government's official web portal to all federal, state and local government web resources and services.